This is the latest recevied weather packets stored in our database for station/object PD2BVG. If no packets are shown the sender has not sent any weather packets the latest 1 day(s).
| Time | Temp. | Humidity | Pressure | Rain* | Wind** | Luminosity | Snow |
|---|---|---|---|---|---|---|---|
| 1778086914 | 13.89° C | 70% | 1011.1 hPa | 0 mm | - | 281 W/m² | - |
| 1778086610 | 13.89° C | 69% | 1011 hPa | 0 mm | - | 287 W/m² | - |
| 1778086550 | 13.89° C | 69% | 1011 hPa | 0 mm | - | 280 W/m² | - |
| 1778086187 | 13.89° C | 69% | 1010.9 hPa | 0 mm | - | 243 W/m² | - |
| 1778085945 | 13.89° C | 69% | 1010.9 hPa | 0 mm | - | 225 W/m² | - |
| 1778085885 | 13.89° C | 69% | 1011 hPa | 0 mm | - | 202 W/m² | - |
| 1778085824 | 13.89° C | 69% | 1010.9 hPa | 0 mm | - | 194 W/m² | - |
| 1778085645 | 13.89° C | 69% | 1010.9 hPa | 0 mm | - | 178 W/m² | - |
| 1778085583 | 13.89° C | 69% | 1011 hPa | 0 mm | - | 220 W/m² | - |
| 1778085519 | 13.89° C | 69% | 1010.9 hPa | 0 mm | - | 215 W/m² | - |
| 1778085279 | 13.89° C | 69% | 1010.9 hPa | 0 mm | - | 267 W/m² | - |
| 1778085038 | 13.89° C | 69% | 1011 hPa | 0 mm | - | 250 W/m² | - |
| 1778084918 | 13.89° C | 69% | 1010.8 hPa | 0 mm | - | 236 W/m² | - |
| 1778084859 | 14.44° C | 69% | 1010.9 hPa | 0 mm | - | 285 W/m² | - |
| 1778084554 | 14.44° C | 70% | 1010.9 hPa | 0 mm | - | 288 W/m² | - |
| 1778084191 | 14.44° C | 70% | 1010.8 hPa | 0 mm | - | 369 W/m² | - |
| 1778084130 | 14.44° C | 71% | 1010.8 hPa | 0 mm | - | 385 W/m² | - |
| 1778084010 | 14.44° C | 72% | 1010.8 hPa | 0 mm | - | 394 W/m² | - |
| 1778083950 | 14.44° C | 72% | 1010.7 hPa | 0 mm | - | 408 W/m² | - |
| 1778083889 | 13.89° C | 71% | 1010.8 hPa | 0 mm | - | 410 W/m² | - |
| 1778083709 | 14.44° C | 71% | 1010.9 hPa | 0 mm | - | 412 W/m² | - |
| 1778083590 | 14.44° C | 71% | 1010.8 hPa | 0 mm | - | 405 W/m² | - |
| 1778083469 | 14.44° C | 71% | 1010.9 hPa | 0 mm | - | 431 W/m² | - |
| 1778082991 | 14.44° C | 72% | 1010.9 hPa | 0 mm | - | 475 W/m² | - |
| 1778082808 | 14.44° C | 72% | 1010.9 hPa | 0 mm | - | 396 W/m² | - |
* Rain latest hour (hover to see other rain measurements)
** Current wind speed in m/s (hover to see current wind gust speed)